TEN-KOH

Satellite information

Favourite Embed

Satellite Type and Status

PAYLOADIN ORBIT

Key statistics

Satellite TEN-KOH at a glance.

Uptime

2504

Days in orbit

Revolutions

≈ 15.0

Per day

Orbit

SSO

Sun Synchronous Orbit

Inclination

98.1

Latest

Satellite identification and parameters

Extended collection of information and parameters for TEN-KOH.

Object identification

Identified? True

Debris? False

Object name: TEN-KOH

International designator: 2018-084G

Object number (NORAD): 43677

Object ID (CCSDS): 43677

Country: JAPAN (JPN)

Current information (Y/N): Y

RCS size: MEDIUM

Orbital parameters

Period: 95.939 minutes

Inclination: 98.082 deg

SMA: 6942.077 km

Apoapsis: 568.242 km

Periapsis: 559.642 km

RAAN: 62.7572 deg

Eccentricy: 0.00061939

Argument of periapsis: 345.1892 deg

Mean anomaly: 14.9149 deg

Mean motion: 15.00958346 rev/day

Mean motion (dot): 0.00004303 rev/day2

B* drag term: 0.00034242532 1/REarth

Two-line elements (TLE)

Creation date: Sept. 4, 2025, 10:13 a.m.

Reference frame: TEME

Reference center: EARTH

Epoch: Sept. 4, 2025, 1:45 a.m. UTC

TLE line 0: 0 TEN-KOH

TLE line 1: 1 43677U 18084G 25247.07295550 .00004303 00000-0 34243-3 0 9990

TLE line 2: 2 43677 98.0820 62.7572 0006194 345.1892 14.9149 15.00958346373212

Live tracking on map

Real-time ground track for satellite TEN-KOH.

In-orbit conjunctions

There are no conjunctions computed for TEN-KOH, at the moment. Check back to stay up to date, as we update our databases every day.

Go to all conjunctions

Associated space launch

KhalifaSat is an Earth observation satellite for UAE. KhalifaSat will provide high-resolution imagery of Earth to be used for various purposes, including urban planning, change monitoring, area classification, monitoring environmental change and aiding relief efforts for natural disasters. GOSAT 2 (Greenhouse gases Observing SATellite 2) is a Japanese satellite dedicated to greenhouse gas measurement from space. It's a follow on to the GOSAT mission and includes such improvements as an ability to gather more precise data and monitor carbon monoxide concentrations.

TEN-KOH was lifted into orbit during the mission ‘H-IIA 202 | KhalifaSat & GOSAT-2’, on board a H-IIA space rocket.

The launch took place on Oct. 29, 2018, 4:08 a.m. from Yoshinobu Launch Complex LP-1.

For more information about the launch, click the button.

Launch to space H-IIA 202 | KhalifaSat & GOSAT-2
H-IIA 202 | KhalifaSat & GOSAT-2

Agency: N/A

Status: Launch Successful

Launch date: Oct. 29, 2018, 4:08 a.m. UTC

Rocket: H-IIA

Launch pad: Yoshinobu Launch Complex LP-1

Location: Tanegashima Space Center, Japan

...

Latest news about this satellite

News about space launch
Japan Launches UAE's KhalifaSat and Climate-Monitoring Satellite Into Orbit


Newsletter sign-up

Weekly statistics, charts and insights to help you stay on top of the space industry.